Location: Bottom School (historical)
(37.9078°N, 89.3593°W)
Time: 19:14:25
(UTC+00:00)

CZ-2C R/B - Pass Details

Date: 08 December 2021
Orbit: 784 x 871 km, 98.2° (Epoch: 16 January)

Event Time Altitude Azimuth Distance (km) Brightness Sun altitude
Rises 23:11:59 0° 24° (NNE) 3,284 5.3 -6.8°
Reaches altitude 10° 23:14:37 10° 36° (NE) 2,348 4.5 -7.3°
Maximum altitude 23:19:05 29° 96° (E) 1,402 3.4 -8.1°
Drops below altitude 10° 23:23:32 10° 156° (SSE) 2,341 5.0 -8.9°
Sets 23:26:08 0° 167° (SSE) 3,273 5.9 -9.4°
